Simultaneous Nadir Overpasses (SNOs) Predictions

Prediction of SNOs between AURA and NPP Satellite Orbit:

Table of predicted SNOs for the next 14.0 days since TLE Epoch: 6/1/2012
Index Date (AURA) Time (AURA) AURA Lat,Lon Date (NPP) Time (NPP) NPP Lat,Lon Distance(km) Time Diff (sec)
1 06/03/2012 19:58:08 -79.63, -41.93 06/03/2012 19:56:57 -79.63, -41.89 0.77 71
2 06/03/2012 20:47:27 79.88, 127.60 06/03/2012 20:47:33 79.89, 127.76 3.13 6
3 06/06/2012 12:14:30 -79.73, 74.71 06/06/2012 12:13:45 -79.74, 74.79 1.52 45
4 06/06/2012 13:03:52 79.87,-116.59 06/06/2012 13:04:25 79.86,-116.71 2.67 33
5 06/09/2012 04:30:55 -79.75,-169.29 06/09/2012 04:30:37 -79.74,-169.40 2.31 18
6 06/09/2012 05:20:15 79.95, -0.04 06/09/2012 05:21:14 79.95, -0.04 0.10 59
7 06/11/2012 19:57:57 79.59, 137.81 06/11/2012 19:56:48 79.59, 137.72 1.80 69
8 06/11/2012 20:47:17 -79.86, -52.58 06/11/2012 20:47:25 -79.86, -52.47 2.19 8
9 06/14/2012 12:14:19 79.68,-105.61 06/14/2012 12:13:37 79.68,-105.71 2.02 42




NCC Satellite Simultaneous Nadir Overpasses (SNOs) Prediction Service
